Regional Weather Roundup
Issued by NWS

Home | Current Version | Previous Version | Text Only | Print | Product List | Glossary On
Versions: 1 2 3 4 5 6 7 8 9 10 11 12 13 14 15 16 17 18 19 20 21 22 23 24 25 26 27 28 29 30 31 32 33 34 35 36 37 38 39 40 41 42 43 44 45 46 47 48 49 50
000
ASUS45 KBOI 270810
RWRID
WEATHER ROUNDUP FOR IDAHO
NATIONAL WEATHER SERVICE BOISE ID
100 AM MST TUE JAN 27 2015

NOTE: "FAIR" INDICATES FEW OR NO CLOUDS BELOW 12000 FEET
WITH NO SIGNIFICANT WEATHER AND/OR OBSTRUCTIONS TO VISIBILITY

IDZ012-014-270900-
SOUTHWEST IDAHO


CITY           SKY/WX    TMP DP  RH WIND       PRES   REMARKS
BOISE          FOG       31  30  96 CALM      30.14F VSB 1/4
CALDWELL       CLOUDY    28  21  74 CALM      30.16F VSB 1/2
MOUNTAIN HOME  CLEAR     30  29  94 NE1       30.13F
$$

IDZ016-017-270900-
SOUTHCENTRAL IDAHO


CITY           SKY/WX    TMP DP  RH WIND       PRES   REMARKS
BURLEY         CLEAR     34  30  85 E7        30.12F WCI  28
JEROME         CLEAR     36  31  82 NE17      30.12S WCI  26
TWIN FALLS     PTCLDY    35  30  82 E9        30.12F WCI  28
$$

IDZ019>023-270900-
SOUTHEAST IDAHO


CITY           SKY/WX    TMP DP  RH WIND       PRES   REMARKS
IDAHO FALLS    PTCLDY    28  26  92 N6        30.20S WCI  22
POCATELLO      CLEAR     29  29 100 CALM      30.17F
REXBURG        PTCLDY    24  20  84 CALM      30.20F
$$

IDZ006-010-011-018-031-032-270900-
CENTRAL IDAHO MOUNTAINS


CITY           SKY/WX    TMP DP  RH WIND       PRES   REMARKS
MCCALL         CLEAR     23  21  92 CALM      30.11S FOG
HAILEY         PTCLDY    34  28  80 NW10      30.18F WCI  26
STANLEY          N/A     17  13  84 CALM      30.21S
SALMON         CLOUDY   N/A N/A N/A CALM      30.21S VSB 1/2
CHALLIS        CLEAR     25  23  92 SE3       30.18S
$$

IDZ002-004-006-007-026-270900-
NORTHERN IDAHO


CITY           SKY/WX    TMP DP  RH WIND       PRES   REMARKS
LEWISTON       MOCLDY    47  39  74 E9        30.01S
LOWELL           N/A     34  33  96 CALM      30.14S
COEUR D`ALENE  CLEAR     30  28  93 NE5       30.00S WCI  25
MULLAN PASS    CLEAR     45  26  47 SW13G20   30.06S
$$


USA.gov is the U.S. government's official web portal to all federal, state and local government web resources and services.